Regional Weather Roundup
Issued by NWS Grand Forks, ND

Home | Current Version | Previous Version | Graphics & Text | Print | Product List | Glossary On
Versions: 1 2 3 4 5 6 7 8 9 10 11 12 13 14 15 16 17 18 19 20 21 22 23 24 25 26 27 28 29 30 31 32 33 34 35 36 37 38 39 40 41 42 43 44 45 46 47 48 49 50
505
ASUS43 KFGF 302131
RWRFGF
PRAIRIE TO PINES  WEATHER ROUNDUP
NATIONAL WEATHER SERVICE EASTERN NORTH DAKOTA/GRAND FORKS ND
400 PM CDT SAT APR 30 2016

 **SATELLITE DATA USED TO AUGMENT SKY COVER AT AUTOMATED STATIONS**
 *****  WEATHER ACROSS EASTERN NORTH DAKOTA  *****

CITY           SKY/WX    TMP DP  RH WIND       PRES   REMARKS
GRAND FORKS    MOSUNNY   61  27  27 E18G33    30.20F
GRAND FRKS AFB SUNNY     61  26  25 E22G32    30.20F
DEVILS LAKE    SUNNY     59  29  31 NE14G29   30.23F
FARGO          CLOUDY    64  24  21 NE18      30.13F
WAHPETON ARPT  PTCLDY    61  27  27 NE14G23   30.09F
$$

 ***** WEATHER ACROSS CENTRAL AND WESTERN NORTH DAKOTA  *****

CITY           SKY/WX    TMP DP  RH WIND       PRES   REMARKS
BISMARCK       SUNNY     59  29  31 E20G36    30.19S
MINOT          SUNNY     66  27  23 E13G26    30.23F
JAMESTOWN      CLOUDY    61  28  28 NE22G30   30.15F
MINOT AFB      MOSUNNY   63  29  28 E17       30.23S
GARRISON         N/A     59  29  31 NE10G23   30.22F
WILLISTON      SUNNY     63  29  27 E15       30.25S
DICKINSON      PTSUNNY   56  30  37 E15       30.18F
HETTINGER      PTSUNNY   56  31  38 E17       30.18S
$$

 *****  OTHER AIRPORT OBSERVATIONS IN OUR AREA  *****

CITY           SKY/WX    TMP DP  RH WIND       PRES   REMARKS
WALHALLA       FAIR      61  32  33 NE12G26   30.25F
GRAFTON AIRPOR FAIR      61  30  31 E12G26    30.23F
VALLEY CITY AR FAIR      59  28  31 E20G29    30.16F
CANDO          FAIR      63  27  25 NE13G26   30.26S
CAVALIER APRT  FAIR      61  32  33 NE14G22   30.24F
GWINNER        FAIR      61  32  33 NE23      30.10F
SHEYENNE NWR     N/A     63  29  27 E16       29.95S
ROLLA          FAIR      59  25  27 NE15G26   30.26F
 ***** THE ABOVE OBSERVATIONS ARE NON NWS ARE NOT QUALITY
       CONTROLLED AND MAY MIS-REPORT RAIN FOR SNOW...
$$

  *****  WEATHER ACROSS NORTHERN MINNESOTA  *****

CITY           SKY/WX    TMP DP  RH WIND       PRES   REMARKS
FLAG ISLAND    SUNNY     54  27  35 N15G22    30.26F
WARROAD        SUNNY     54  34  47 E9        30.26F
ROSEAU         SUNNY     57  30  35 E23       30.23F
HALLOCK        SUNNY     63  23  22 NE14G21   30.22F
THF RVR FALLS  SUNNY     57  27  30 NE21      30.20F
BAUDETTE       SUNNY     58  25  28 NE17      30.22F
WASKISH        SUNNY     57  30  35 NE16G22   30.20S
CROOKSTON      SUNNY     61  28  29 E20       30.19F
STEPHEN NDAWN    N/A     63  30  29 NE20        N/A
GREENBUSH NDAW   N/A     57  28  33 NE14        N/A
$$
  *****  WEATHER ACROSS CENTRAL AND WEST MINNESOTA  *****

CITY           SKY/WX    TMP DP  RH WIND       PRES   REMARKS
FOSSTON        SUNNY     57  25  28 NE18G25   30.18R
BEMIDJI        SUNNY     58  29  33 E15G23    30.16R
PARK RAPIDS    CLOUDY    59  27  29 E13G20    30.13S
ELBOW LAKE     FAIR      56  32  40 NE12G20   30.09F
WADENA         CLOUDY    57  30  35 E10G23    30.10F
DETROIT LAKES  MOSUNNY   59  28  31 NE16      30.14S
MOORHEAD       CLOUDY    61  28  29 E13       30.13F
FERGUS FALLS   CLOUDY    59  30  33 E10G24    30.07F
MORRIS MN      CLOUDY    57  36  44 E24       30.06S
STAPLES        CLOUDY    57  28  33 NE15G22   30.11F
$$
  *****  WEATHER ELSEWHERE ACROSS MINNESOTA  *****

CITY           SKY/WX    TMP DP  RH WIND       PRES   REMARKS
DULUTH         CLOUDY    47  27  45 E21G32    30.21F
INTRNTL FALLS  SUNNY     56  27  32 E13G23    30.22F
ELY            MOSUNNY   52  25  35 NE7G20    30.20F
CLOQUET        CLOUDY    48  25  40 E16G31    30.19S
WHEATON        CLOUDY    61  36  39 NE13G22   30.09F
BRAINERD       CLOUDY    55  29  36 E15G25    30.14S
HIBBING        PTSUNNY   54  26  34 E15G22    30.16F
ALEXANDRIA     PTSUNNY   56  32  40 E21G28    30.09F
SAINT CLOUD    CLOUDY    57  33  40 NE10G26   30.07S
MINNEAPOLIS    CLOUDY    57  32  38 E20       30.04R
$$

  *****  WEATHER ACROSS SOUTH DAKOTA  *****

CITY           SKY/WX    TMP DP  RH WIND       PRES   REMARKS
SIOUX FALLS    CLOUDY    45  39  79 NE24G37   29.93S
BROOKINGS      CLOUDY    49  37  63 NE21G29   29.96F
WATERTOWN      CLOUDY    53  35  50 E18G36    30.02S
HURON          CLOUDY    50  37  61 E20       30.01R
SISSETON         N/A     59  33  37 E16G29    30.06S
ABERDEEN       CLOUDY    58  35  42 E22G30    30.07S
MITCHELL       RAIN      46  42  86 NE22G29   29.97R FOG
PIERRE         CLOUDY    54  36  50 NE26G35   30.03R
MOBRIDGE       CLOUDY    60  32  34 NE24G31   30.08S
RAPID CITY     CLOUDY    48  34  58 N16       30.09S
$$

  *****  SOME WEATHER IN NEARBY STATES *****

CITY           SKY/WX    TMP DP  RH WIND       PRES   REMARKS
GLASGOW MT     SUNNY     62  29  28 E15       30.25S
GREAT FALLS MT CLOUDY    51  35  54 E10       30.23R
CHEYENNE WY    SNOW      33  29  85 N16G28    30.03R VSB 1/2 WCI  23
SCOTTSBLUFF NE LGT RAIN  38 N/A N/A N20G25    30.03R
OMAHA NE       CLOUDY    50  48  93 E9        29.77R FOG
DES MOINES IA  DRIZZLE   51  47  86 E16G22    29.80R FOG
DAVENPORT IA   LGT RAIN  47  45  93 E20G31    29.84R FOG
CHICAGO IL     LGT RAIN  45  43  93 NE16G24   29.92F FOG
EAU CLAIRE WI  CLOUDY    58  32  37 E14G24    30.02F
LA CROSSE WI   LGT RAIN  51  38  60 E14G23    30.00S
$$

  *****  SOME NATIONAL WEATHER *****

CITY           SKY/WX    TMP DP  RH WIND       PRES   REMARKS
LA GUARDIA NY  CLOUDY    59  35  40 S13       30.21R
RALEIGH NC     CLOUDY    63  56  78 E10       30.12F
ATLANTA GA     MOSUNNY   85  61  44 S15       29.92S
NEW ORLEANS LA LGT RAIN  73  69  87 S20       29.84F
OKLAHOMA CITY  MOSUNNY   70  48  45 NW12G23   29.79F
ALBUQUERQUE NM PTSUNNY   62  34  35 N14       29.83F
SALT LAKE CITY PTSUNNY   59  30  33 N12       29.92R
LOS ANGELES CA MOSUNNY   64  49  57 W14       29.83S
BOISE ID       SUNNY     68  36  30 NW22G30   30.01S
SEATTLE WA     MOSUNNY   65  42  43 N14G20    30.35F
$$

*** WEATHER ACROSS MANITOBA...SASKATCHEWAN AND ONTARIO ***
                ***ONTARIO***

CITY           SKY/WX    TMP DP  RH WIND       PRES   REMARKS
GERALDTON      MOSUNNY   48  27  43 NE10G17   30.29F
THUNDER BAY    MOSUNNY   54  27  35 E14       30.26F
SIOUX LOOKOUT  MOSUNNY   55  28  35 E5        30.28S
TORONTO        CLOUDY    57  30  35 E8G17     30.13F
BIG TROUT LK   SUNNY     46  27  46 S6        30.36F
PICKLE LAKE    MOSUNNY   48  27  43 NE9       30.32F
DRYDEN         SUNNY     54  25  32 E12G18    30.27F
KENORA         SUNNY     57  25  28 NE9G20    30.28
$$
                *** MANITOBA***

CITY           SKY/WX    TMP DP  RH WIND       PRES   REMARKS
BRANDON        MOSUNNY   61  27  27 E20G28    30.30F
DAUPHIN        SUNNY     63  27  25 E15G23    30.34F
ISLAND LAKE    MOSUNNY   61  25  25 W3        30.32F
PILOT MOUND      N/A     59  25  27 NE16G25     N/A
THE PAS        CLOUDY    66  27  22 VRB3      30.32F
THOMPSON       MOSUNNY   70  30  23 SW9G17    30.27F
WINNIPEG       SUNNY     61  28  29 NE18G25   30.29F
LYNN LAKE      SUNNY     68  23  18 W12G25    30.24F
CHURCHILL      PTSUNNY   37  27  65 SE13      30.40F
GILLAM         PTSUNNY   57  27  30 S3        30.35
$$
                ***SASKATCHEWAN***

CITY           SKY/WX    TMP DP  RH WIND       PRES   REMARKS
ESTEVAN        MOSUNNY   64  25  22 NE16G25   30.27S
KINDERSLEY     PTSUNNY   63  30  29 VRB8G18   30.27F
LLOYDMINSTER   CLOUDY    59  32  36 SW13G20   30.25S
PRINCE ALBERT  PTSUNNY   66  23  19 S9        30.29F
REGINA         MOSUNNY   64  23  20 E10G18    30.29F
YORKTON        SUNNY     63  27  25 E14G36    30.32F
N. BATTLEFORD  PTSUNNY   68  28  22 SW9G21    30.27F
LA RONGE       MOSUNNY   68  21  17 SE16G23   30.25F
SASKATOON      MOSUNNY   68  25  19 SE13      30.30F
SWIFT CURRENT  PTSUNNY   63  28  27 SE10G18   30.26S
$$
NOTE: THESE ARE AUTOMATED STATIONS WITH LIMITED QUALITY CONTROL
      "FAIR" INDICATES FEW OR NO CLOUDS BELOW 12,000 FEET WITH NO
      SIGNIFICANT WEATHER AND/OR OBSTRUCTIONS TO VISIBILITY.
      SKY/WX - SKY CONDITION AND SIGNIFICANT WEATHER.
      TMP - AIR TEMPERATURE.    DP   - DEWPOINT TEMPERATURE.
      RH  - RELATIVE HUMIDITY.  PRES - PRESSURE.
      HX  - HEAT INDEX.         WCI  - WIND CHILL INDEX.
$




USA.gov is the U.S. government's official web portal to all federal, state and local government web resources and services.